[[{"header":{"parameterUnit":"m.s-1","parameterCategory":2,"la1":30.2991,"la2":30.254,"lo1":-89.0895,"lo2":-89.0444,"dy":0.0017,"dx":0.0017,"nx":28,"ny":28,"refTime":"2024-05-19T03:00:00:Z","depth":"0","parameterNumber":2,"parameterNumberName":"U-component_of_CURRENTS"},"data":[0,0,0,0,0,0,0,0,0,0,0,0,0,0,0,0,0,0,0,0,0,0,0,0,0,0,0,0,0,0,0,0,0,0,0,0,0,0,0,0,0,0,0,0,0,0,0,0,0,0,0,0,0,0,0,0,0,0,0.1919,0.192,0,0.1913,0.1913,0.1913,0.1912,0.1912,0.1912,0.1913,0.1923,0.1923,0.1923,0,0,0,0,0,0,0,0,0,0,0,0,0,0.1905,0.1905,0.1919,0.192,0.192,0.1913,0.1913,0.1913,0.1912,0.1912,0.1912,0.1913,0.1923,0.1923,0.1923,0,0,0,0,0,0,0,0,0,0,0,0,0,0.1905,0.1905,0.1919,0.1919,0.192,0.1913,0.1913,0.1913,0.1912,0.1912,0.1913,0.1913,0.1923,0.1923,0.1923,0.1919,0,0,0.1924,0.1924,0,0,0,0,0,0,0,0,0.1905,0.1905,0.1919,0.1919,0.192,0.1915,0.1912,0.1916,0.1912,0.1913,0.1913,0.1913,0.1923,0.1923,0.1919,0.1919,0.192,0.1924,0.1924,0.1924,0.1924,0,0,0,0,0,0,0,0.1905,0.1905,0.1916,0.192,0.192,0.1911,0.1911,0.1912,0.1916,0.1913,0.1913,0.1915,0.1923,0.1919,0.1919,0.192,0.1924,0.1924,0.1924,0.1924,0.1962,0.1963,0,0,0,0,0,0,0.191,0.1905,0.1916,0.1915,0.1914,0.1911,0.1912,0.1915,0.1915,0.1916,0.1915,0.1915,0.1918,0.1919,0.192,0.1953,0.1924,0.1924,0.1924,0.1962,0.1963,0.1964,0,0,0,0,0,0,0.1909,0.1911,0.1916,0.1911,0.1912,0.1912,0.1915,0.1915,0.1914,0.1917,0.1917,0.1915,0.1919,0.1919,0.1926,0.1952,0.1924,0.1924,0.196,0.1962,0.1963,0.1995,0,0,0,0,0,0,0.1909,0.1911,0.191,0.1912,0.1912,0.1921,0.1915,0.1914,0.1915,0.1916,0.1917,0.1918,0.1919,0.1926,0.1926,0.1952,0.1925,0.1959,0.1961,0.1963,0.1993,0.1998,0.2002,0,0,0,0,0,0.1909,0.1922,0.191,0.1911,0.1913,0.1922,0.1921,0.192,0.1915,0.192,0.1918,0.1918,0.1938,0.1926,0.1926,0.1953,0.1958,0.1961,0.1963,0.1991,0.1997,0.2001,0,0,0,0,0,0,0.1935,0.1923,0.191,0.1924,0.1921,0.1922,0.193,0.1921,0.1922,0.1926,0.192,0.1921,0.1936,0.1939,0.1926,0.197,0.1952,0.1954,0.1974,0.1979,0.1983,0.2011,0.1925,0,0,0,0,0,0.1934,0.1933,0.1924,0.1937,0.1935,0.1927,0.1928,0.1928,0.193,0.1931,0.1927,0.1934,0.1944,0.1956,0.1957,0.1979,0.2036,0.2,0.2004,0.2008,0.2031,0.2111,0.2125,0.197,0.197,0.197,0,0,0.1952,0.1944,0.1945,0.194,0.1938,0.1954,0.1929,0.1941,0.1957,0.1932,0.1949,0.1938,0.1948,0.1971,0.1981,0.198,0.2092,0.2011,0.2014,0.2035,0.2115,0.213,0.2144,0.1972,0.1972,0.1971,0,0,0.2005,0.1976,0.1998,0.199,0.1987,0.1977,0.198,0.1975,0.1973,0.1978,0.1971,0.1979,0.1983,0.2005,0.2016,0.2047,0.21,0.2046,0.2104,0.218,0.2194,0.2207,0.2344,0.2369,0.2062,0.2062,0.2062,0,0.2047,0.2051,0.2009,0.203,0.2035,0.1991,0.2027,0.2014,0.2011,0.2027,0.1991,0.202,0.2007,0.207,0.2072,0.2059,0.2132,0.2081,0.2188,0.2201,0.2214,0.2351,0.2378,0.2064,0.2063,0.2063,0.2063,0,0.2109,0.2111,0.2127,0.2129,0.2124,0.2146,0.212,0.2118,0.2095,0.2093,0.2121,0.2097,0.2133,0.2117,0.2098,0.2185,0.2221,0.2174,0.2178,0.2232,0.2373,0.2401,0.2066,0.2066,0.2065,0.2065,0,0,0.2248,0.2188,0.2199,0.2195,0.2178,0.2184,0.2203,0.2221,0.2251,0.2221,0.2275,0.2258,0.2248,0.226,0.2241,0.2286,0.2425,0.227,0.2274,0.2415,0.2659,0.265,0.268,0.2397,0.24,0.2403,0.2739,0,0.2333,0.2359,0.2316,0.2349,0.236,0.2317,0.2335,0.2337,0.233,0.2359,0.2343,0.2372,0.2305,0.2323,0.236,0.2395,0.2492,0.2343,0.258,0.2589,0.2578,0.2708,0.255,0.2831,0.2766,0.2771,0.2774,0,0.2434,0.2423,0.2463,0.2432,0.2439,0.2453,0.2477,0.2485,0.2508,0.251,0.2543,0.2526,0.2594,0.2503,0.2661,0.2574,0.2639,0.2662,0.2675,0.2674,0.2629,0.2757,0.2883,0.2745,0.2816,0.2813,0.281,0,0.2538,0.2537,0.2559,0.2553,0.2518,0.2541,0.253,0.2546,0.2568,0.2619,0.2662,0.2718,0.2776,0.2831,0.2882,0.2792,0.3065,0.2952,0.3034,0.3037,0.2954,0.2942,0.2975,0.3105,0.3104,0.3103,0.3102,0,0.2647,0.267,0.2601,0.2613,0.2653,0.2602,0.2662,0.2666,0.2692,0.2743,0.2749,0.2824,0.2856,0.2986,0.2995,0.314,0.319,0.3102,0.3128,0.2964,0.2949,0.2861,0.2785,0.3116,0.3113,0.3111,0.3109,0,0.2772,0.2724,0.2744,0.2704,0.2701,0.2726,0.2723,0.2757,0.2784,0.2861,0.2888,0.2977,0.3138,0.3213,0.3355,0.3328,0.3326,0.3472,0.331,0.3308,0.3157,0.3089,0.3124,0.3039,0.3602,0.3603,0.3605,0,0.2839,0.2859,0.2821,0.2824,0.2812,0.2826,0.2836,0.2819,0.2846,0.2946,0.2991,0.3177,0.3261,0.3508,0.3524,0.3641,0.3469,0.3569,0.3327,0.3186,0.3129,0.2972,0.2883,0.327,0.3269,0.3268,0.3267,0,0.2972,0.2951,0.2944,0.2937,0.294,0.2939,0.2939,0.2962,0.2954,0.3017,0.3106,0.3175,0.3392,0.3415,0.3587,0.3602,0.334,0.3549,0.3428,0.2916,0.2724,0.264,0.3061,0.3257,0.3258,0.3259,0.3259,0.326,0.3069,0.3078,0.3043,0.3043,0.3037,0.3013,0.2989,0.2992,0.3011,0.3038,0.3143,0.3202,0.3263,0.3432,0.3449,0.3339,0.3315,0.318,0.3141,0.302,0.2811,0.3248,0.3425,0.3427,0.3429,0.343,0.3431,0,0.3151,0.3129,0.3142,0.3092,0.3076,0.3055,0.3022,0.2964,0.2948,0.3033,0.3077,0.3082,0.3082,0.31,0.3035,0.292,0.2755,0.2834,0.2534,0.249,0.2916,0.2765,0.2772,0.2772,0.2772,0.2772,0.2772,0.2772,0.3181,0.3178,0.3156,0.3119,0.3086,0.2989,0.2943,0.2871,0.2871,0.2833,0.2815,0.2857,0.2825,0.2745,0.258,0.2527,0.23,0.2224,0.2236,0.2463,0.2488,0.2512,0.2349,0.2269,0.2268,0.1668,0.1663,0.166]},{"header":{"parameterUnit":"m.s-1","parameterCategory":2,"la1":30.2991,"la2":30.254,"lo1":-89.0895,"lo2":-89.0444,"dy":0.0017,"dx":0.0017,"nx":28,"ny":28,"refTime":"2024-05-19T03:00:00:Z","depth":"0","parameterNumber":3,"parameterNumberName":"V-component_of_CURRENTS"},"data":[0,0,0,0,0,0,0,0,0,0,0,0,0,0,0,0,0,0,0,0,0,0,0,0,0,0,0,0,0,0,0,0,0,0,0,0,0,0,0,0,0,0,0,0,0,0,0,0,0,0,0,0,0,0,0,0,0,0,-0.0652,-0.0652,0,-0.074,-0.0741,-0.0742,-0.0814,-0.0815,-0.0815,-0.0816,-0.0919,-0.0921,-0.0923,0,0,0,0,0,0,0,0,0,0,0,0,0,-0.0572,-0.0573,-0.0651,-0.0653,-0.0654,-0.074,-0.0741,-0.0742,-0.0814,-0.0815,-0.0816,-0.0816,-0.0918,-0.0921,-0.0923,0,0,0,0,0,0,0,0,0,0,0,0,0,-0.0628,-0.0573,-0.0651,-0.07,-0.0705,-0.0739,-0.0741,-0.0742,-0.0814,-0.0815,-0.0816,-0.0817,-0.0918,-0.0921,-0.0924,-0.0921,0,0,-0.0933,-0.0934,0,0,0,0,0,0,0,0,-0.0625,-0.0631,-0.0691,-0.0696,-0.0702,-0.0767,-0.0751,-0.0803,-0.0813,-0.0773,-0.0816,-0.0817,-0.0869,-0.0876,-0.089,-0.0925,-0.093,-0.0933,-0.0935,-0.0937,-0.0937,0,0,0,0,0,0,0,-0.0621,-0.0627,-0.0687,-0.0693,-0.0699,-0.0726,-0.0735,-0.0761,-0.0814,-0.0776,-0.0782,-0.0791,-0.0872,-0.0887,-0.0893,-0.0931,-0.0933,-0.0936,-0.0938,-0.0939,-0.0968,-0.0967,0,0,0,0,0,0,-0.0607,-0.0624,-0.0684,-0.0689,-0.0665,-0.0727,-0.0737,-0.0745,-0.0813,-0.0825,-0.079,-0.0794,-0.0881,-0.0889,-0.0897,-0.0874,-0.0937,-0.0939,-0.0941,-0.0969,-0.0968,-0.0966,0,0,0,0,0,0,-0.0605,-0.0611,-0.068,-0.0658,-0.0669,-0.0727,-0.0736,-0.0746,-0.076,-0.0823,-0.0835,-0.0792,-0.0882,-0.0893,-0.0905,-0.088,-0.0941,-0.0944,-0.097,-0.0969,-0.0967,-0.0844,0,0,0,0,0,0,-0.0602,-0.061,-0.06,-0.0657,-0.067,-0.0681,-0.0735,-0.0747,-0.0764,-0.077,-0.0829,-0.084,-0.0884,-0.09,-0.0908,-0.0885,-0.0946,-0.0972,-0.0969,-0.0968,-0.0849,-0.0838,-0.0829,0,0,0,0,0,-0.0599,-0.0574,-0.0599,-0.0606,-0.0659,-0.068,-0.0688,-0.0734,-0.0762,-0.0753,-0.0795,-0.0838,-0.0894,-0.0901,-0.0911,-0.0888,-0.0973,-0.097,-0.0968,-0.0854,-0.084,-0.0829,0,0,0,0,0,0,-0.0517,-0.0581,-0.061,-0.0602,-0.0633,-0.0692,-0.0681,-0.0722,-0.0749,-0.0753,-0.082,-0.0833,-0.0839,-0.0878,-0.0885,-0.0892,-0.0942,-0.0941,-0.0852,-0.084,-0.083,-0.0784,-0.0949,0,0,0,0,0,-0.0499,-0.0504,-0.0565,-0.0551,-0.0565,-0.0623,-0.0635,-0.067,-0.0707,-0.0721,-0.0765,-0.0808,-0.0836,-0.0848,-0.0882,-0.0877,-0.088,-0.0872,-0.0861,-0.0852,-0.0822,-0.0822,-0.0808,-0.0958,-0.0958,-0.0959,0,0,-0.0459,-0.0495,-0.0495,-0.0535,-0.0562,-0.0557,-0.0632,-0.064,-0.0633,-0.0726,-0.0719,-0.0773,-0.0828,-0.0828,-0.0834,-0.0856,-0.0803,-0.0849,-0.084,-0.0815,-0.0817,-0.0803,-0.0789,-0.0957,-0.0957,-0.0957,0,0,-0.0382,-0.0417,-0.0399,-0.0421,-0.0461,-0.0496,-0.0494,-0.0551,-0.0571,-0.0582,-0.0645,-0.0673,-0.0722,-0.0748,-0.077,-0.072,-0.0752,-0.0742,-0.0647,-0.0647,-0.0634,-0.0623,-0.0567,-0.0552,-0.0733,-0.0732,-0.0732,0,-0.0335,-0.0326,-0.0389,-0.0377,-0.0379,-0.046,-0.0432,-0.0458,-0.051,-0.0509,-0.0561,-0.0616,-0.0677,-0.0661,-0.0655,-0.0694,-0.0682,-0.0689,-0.063,-0.062,-0.061,-0.0557,-0.0542,-0.0726,-0.0727,-0.0727,-0.0728,0,-0.0253,-0.0244,-0.0227,-0.0244,-0.0249,-0.0237,-0.0288,-0.029,-0.0336,-0.0371,-0.0378,-0.046,-0.0492,-0.0523,-0.0578,-0.0539,-0.0546,-0.062,-0.0655,-0.0587,-0.0536,-0.0522,-0.0717,-0.0719,-0.0721,-0.0723,0,0,-0.0165,-0.0171,-0.0165,-0.0151,-0.0183,-0.0179,-0.0151,-0.0153,-0.012,-0.0191,-0.0149,-0.0233,-0.0292,-0.032,-0.0396,-0.0401,-0.0335,-0.0473,-0.0476,-0.0402,-0.0283,-0.0257,-0.024,-0.0403,-0.04,-0.0399,-0.0258,0,-0.0085,-0.0027,-0.0054,0.001,0.0032,-0.0015,0.0022,0.0011,-0.0012,0.001,-0.0075,-0.0084,-0.0211,-0.0228,-0.0251,-0.0321,-0.03,-0.0363,-0.0372,-0.0371,-0.0346,-0.0225,-0.0213,-0.0086,-0.0245,-0.0243,-0.0242,0,-0.0007,0.0018,0.0093,0.0127,0.0136,0.0167,0.0215,0.0235,0.0242,0.0224,0.02,0.0122,0.0101,-0.0029,-0.0071,-0.0106,-0.0171,-0.0224,-0.0222,-0.023,-0.0321,-0.019,-0.0056,-0.0205,-0.0221,-0.0223,-0.0224,0,0.007,0.012,0.0184,0.0193,0.0221,0.026,0.0284,0.0306,0.0342,0.0363,0.0398,0.0335,0.0331,0.0224,0.0092,0.0011,0.0073,-0.0062,-0.0078,-0.0075,-0.008,-0.0082,-0.0079,-0.0062,-0.0062,-0.0062,-0.0063,0,0.0146,0.0196,0.0227,0.0258,0.0344,0.0343,0.0439,0.0456,0.0512,0.0589,0.0507,0.0573,0.0389,0.0375,0.0213,0.0154,0.0169,-0.0003,-0.0028,-0.0034,-0.0033,-0.018,-0.0267,-0.0057,-0.0058,-0.0059,-0.006,0,0.0201,0.0224,0.0293,0.0351,0.0373,0.0434,0.0517,0.0588,0.0641,0.0753,0.0763,0.0782,0.0784,0.0637,0.0523,0.0352,0.0199,0.0225,0.0267,0.0244,0.0031,-0.0048,-0.0005,-0.0052,0.0224,0.0226,0.0227,0,0.0227,0.0269,0.0352,0.0395,0.0419,0.0504,0.0565,0.0633,0.0714,0.0885,0.0953,0.1024,0.1086,0.0986,0.0733,0.0551,0.0352,0.0395,0.0214,0.0085,-0.0023,-0.0085,-0.0134,0.0276,0.0278,0.0279,0.028,0,0.0268,0.0299,0.0353,0.0442,0.0513,0.0601,0.0703,0.0789,0.0902,0.1045,0.1247,0.1335,0.1296,0.1151,0.0914,0.0736,0.0311,0.0415,0.0256,0.0031,-0.0009,-0.0088,0.0149,0.0292,0.0291,0.029,0.0289,0.0289,0.0288,0.0331,0.0402,0.0483,0.0569,0.0685,0.0789,0.0929,0.1109,0.1369,0.1453,0.1684,0.145,0.1155,0.0911,0.0462,0.044,0.024,0.0169,0.0129,0.0043,0.0347,0.0455,0.0455,0.0455,0.0455,0.0455,0,0.0298,0.0352,0.0434,0.0542,0.0641,0.0686,0.0868,0.1013,0.1259,0.1552,0.1775,0.1858,0.1513,0.1146,0.0531,0.022,0.0092,0.0055,-0.0067,-0.0102,0.0152,0.0105,0.0173,0.0173,0.0173,0.0173,0.0173,0.0173,0.0307,0.0377,0.0422,0.0569,0.0658,0.0831,0.0951,0.1196,0.1447,0.1856,0.2095,0.2255,0.1957,0.0828,0.0091,-0.0067,-0.0288,-0.0279,-0.0388,-0.0286,-0.0277,-0.0269,-0.0335,-0.036,-0.0361,-0.0627,-0.063,-0.0632]}],[{"header":{"parameterUnit":"m.s-1","parameterCategory":2,"la1":30.2991,"la2":30.254,"lo1":-89.0895,"lo2":-89.0444,"dy":0.0017,"dx":0.0017,"nx":28,"ny":28,"refTime":"2024-05-19T03:00:00:Z","depth":"2","parameterNumber":2,"parameterNumberName":"U-component_of_CURRENTS"},"data":[0,0,0,0,0,0,0,0,0,0,0,0,0,0,0,0,0,0,0,0,0,0,0,0,0,0,0,0,0,0,0,0,0,0,0,0,0,0,0,0,0,0,0,0,0,0,0,0,0,0,0,0,0,0,0,0,0,0,0.1794,0.1796,0,0.189,0.189,0.1891,0.1929,0.1929,0.1929,0.1929,0.1983,0.1984,0.1985,0,0,0,0,0,0,0,0,0,0,0,0,0,0.1666,0.1668,0.1794,0.1796,0.1797,0.1889,0.189,0.1891,0.1929,0.1929,0.1929,0.1929,0.1982,0.1984,0.1985,0,0,0,0,0,0,0,0,0,0,0,0,0,0.1734,0.1669,0.1794,0.183,0.1834,0.1889,0.189,0.1892,0.1929,0.1929,0.1929,0.193,0.1982,0.1984,0.1986,0.1996,0,0,0.1992,0.1993,0,0,0,0,0,0,0,0,0.173,0.1739,0.1823,0.1827,0.1832,0.1901,0.1865,0.1926,0.1929,0.1889,0.1929,0.193,0.1953,0.1958,0.1971,0.1998,0.2001,0.1992,0.1993,0.1994,0.1995,0,0,0,0,0,0,0,0.1726,0.1735,0.1828,0.1825,0.183,0.1849,0.1858,0.1877,0.1916,0.1893,0.1897,0.1913,0.1955,0.1969,0.1973,0.2001,0.1992,0.1994,0.1995,0.1996,0.2046,0.2046,0,0,0,0,0,0,0.172,0.173,0.1826,0.1832,0.1784,0.1851,0.1861,0.1876,0.1917,0.1925,0.1913,0.1914,0.1966,0.197,0.1975,0.1983,0.1994,0.1996,0.1997,0.2046,0.2046,0.2046,0,0,0,0,0,0,0.1717,0.1727,0.1822,0.1786,0.18,0.1853,0.1869,0.1878,0.1886,0.1933,0.1939,0.1912,0.1966,0.1972,0.1989,0.1986,0.1997,0.1999,0.2046,0.2046,0.2046,0.2004,0,0,0,0,0,0,0.1712,0.1725,0.1724,0.1785,0.1802,0.1841,0.187,0.188,0.1898,0.19,0.1934,0.194,0.1966,0.1986,0.1991,0.1989,0.2,0.2045,0.2046,0.2046,0.2006,0.2003,0.2001,0,0,0,0,0,0.1707,0.1706,0.1723,0.1735,0.1801,0.1841,0.185,0.1887,0.1897,0.1894,0.1924,0.1939,0.1991,0.1988,0.1994,0.1992,0.2045,0.2046,0.2046,0.2007,0.2004,0.2001,0,0,0,0,0,0,0.165,0.1713,0.1732,0.175,0.1787,0.1848,0.1854,0.1878,0.19,0.19,0.1939,0.1947,0.1963,0.1982,0.1977,0.2008,0.2021,0.2023,0.1989,0.1987,0.1984,0.1999,0.2002,0,0,0,0,0,0.1638,0.1653,0.1714,0.1726,0.1744,0.1795,0.1813,0.1838,0.1874,0.1883,0.1907,0.1937,0.1971,0.1981,0.2007,0.2019,0.208,0.2023,0.2021,0.2018,0.2035,0.212,0.2127,0.2047,0.2047,0.2047,0,0,0.1624,0.1657,0.1668,0.1715,0.1748,0.1777,0.1804,0.1828,0.1853,0.1885,0.1905,0.1927,0.1973,0.1992,0.2001,0.2006,0.2074,0.2019,0.2017,0.2035,0.2121,0.2129,0.2136,0.2047,0.2047,0.2047,0,0,0.1615,0.1628,0.1647,0.1673,0.1719,0.1749,0.1752,0.1801,0.1818,0.1843,0.1879,0.19,0.1935,0.1973,0.1999,0.2,0.206,0.1999,0.1997,0.2078,0.2085,0.2093,0.2185,0.2201,0.1996,0.1995,0.1995,0,0.1597,0.1634,0.1655,0.1681,0.1713,0.1735,0.177,0.1785,0.1829,0.186,0.1841,0.1923,0.1935,0.2001,0.1991,0.1996,0.2058,0.2001,0.2076,0.2085,0.2093,0.2186,0.2204,0.1993,0.1994,0.1994,0.1994,0,0.1618,0.1639,0.1648,0.1694,0.1719,0.1743,0.1782,0.1795,0.181,0.1843,0.1892,0.1911,0.1977,0.1961,0.1971,0.2036,0.2067,0.2064,0.2083,0.2099,0.2195,0.2215,0.1991,0.1991,0.1992,0.1992,0,0,0.1605,0.1658,0.1661,0.169,0.1732,0.1759,0.179,0.1849,0.1894,0.1893,0.1966,0.1975,0.1994,0.2025,0.2036,0.207,0.2158,0.2081,0.2086,0.2173,0.2357,0.2225,0.2235,0.217,0.2173,0.2175,0.2402,0,0.1624,0.167,0.1701,0.1745,0.1773,0.181,0.1848,0.1892,0.1928,0.1985,0.2005,0.2067,0.2019,0.2055,0.2081,0.2159,0.2208,0.2099,0.2329,0.2337,0.2218,0.2252,0.2039,0.2209,0.2422,0.2425,0.2428,0,0.1642,0.1672,0.1724,0.1789,0.181,0.1842,0.1928,0.1967,0.2043,0.2077,0.2131,0.2164,0.2233,0.2174,0.232,0.2257,0.2306,0.2338,0.2348,0.2256,0.224,0.2227,0.2238,0.2462,0.2459,0.2457,0.2454,0,0.1624,0.1689,0.1733,0.1752,0.1825,0.1872,0.1918,0.1998,0.205,0.2152,0.2211,0.2293,0.2367,0.2426,0.2493,0.2428,0.2654,0.2588,0.2521,0.2515,0.2395,0.237,0.2692,0.2692,0.2691,0.269,0.269,0,0.1629,0.1662,0.1729,0.1749,0.1812,0.1873,0.1958,0.2015,0.2117,0.219,0.2263,0.2336,0.2431,0.2558,0.2577,0.2632,0.2749,0.2541,0.2562,0.2371,0.2342,0.2603,0.2589,0.2699,0.2697,0.2695,0.2694,0,0.16,0.1642,0.1689,0.1772,0.1801,0.1846,0.1962,0.2019,0.2132,0.2239,0.2283,0.2429,0.2566,0.2672,0.2813,0.2753,0.2813,0.2807,0.2575,0.2559,0.2596,0.2578,0.2733,0.273,0.2728,0.2726,0.2724,0,0.1596,0.1613,0.1685,0.1713,0.1755,0.1832,0.1882,0.1999,0.2067,0.2271,0.2318,0.2504,0.256,0.2739,0.2707,0.2759,0.2832,0.2587,0.2369,0.2593,0.2601,0.2586,0.2572,0.2227,0.2221,0.2216,0.2213,0,0.1582,0.1601,0.1636,0.1686,0.1738,0.1796,0.1887,0.1944,0.2093,0.2193,0.2317,0.2381,0.2496,0.2427,0.2508,0.2484,0.2541,0.2483,0.2857,0.2202,0.2121,0.2125,0.2128,0.2172,0.2176,0.2179,0.2181,0.2183,0.1573,0.158,0.162,0.1665,0.1714,0.1769,0.181,0.1905,0.2002,0.2114,0.2206,0.2227,0.2238,0.2177,0.2144,0.2124,0.2248,0.2154,0.2168,0.2187,0.204,0.1953,0.195,0.1953,0.1955,0.1957,0.1959,0,0.1565,0.1575,0.1604,0.1656,0.1685,0.1741,0.1813,0.1809,0.1888,0.1952,0.1996,0.1817,0.1783,0.1831,0.1699,0.1659,0.1631,0.1618,0.1586,0.1628,0.1666,0.149,0.1256,0.1254,0.1252,0.125,0,0,0.1568,0.1572,0.1575,0.1615,0.1665,0.1686,0.172,0.1691,0.1692,0.1633,0.162,0.1696,0.1754,0.149,0.1441,0.134,0.1469,0.1278,0.1844,0.1849,0.1883,0.1979,0.1756,0,0,0,0,0]},{"header":{"parameterUnit":"m.s-1","parameterCategory":2,"la1":30.2991,"la2":30.254,"lo1":-89.0895,"lo2":-89.0444,"dy":0.0017,"dx":0.0017,"nx":28,"ny":28,"refTime":"2024-05-19T03:00:00:Z","depth":"2","parameterNumber":3,"parameterNumberName":"V-component_of_CURRENTS"},"data":[0,0,0,0,0,0,0,0,0,0,0,0,0,0,0,0,0,0,0,0,0,0,0,0,0,0,0,0,0,0,0,0,0,0,0,0,0,0,0,0,0,0,0,0,0,0,0,0,0,0,0,0,0,0,0,0,0,0,0.0621,0.0621,0,0.0589,0.0588,0.0588,0.0538,0.0537,0.0536,0.0536,0.041,0.0407,0.0405,0,0,0,0,0,0,0,0,0,0,0,0,0,0.0566,0.0567,0.0621,0.0621,0.0621,0.0589,0.0588,0.0587,0.0538,0.0537,0.0536,0.0535,0.0411,0.0408,0.0404,0,0,0,0,0,0,0,0,0,0,0,0,0,0.0565,0.0568,0.0621,0.0594,0.0591,0.0589,0.0588,0.0587,0.0538,0.0537,0.0536,0.0535,0.0412,0.0408,0.0404,0.04,0,0,0.0392,0.039,0,0,0,0,0,0,0,0,0.0566,0.0567,0.0598,0.0595,0.0592,0.0568,0.0523,0.0521,0.0538,0.0556,0.0536,0.0534,0.0456,0.0449,0.0443,0.0395,0.0389,0.0391,0.0389,0.0387,0.0386,0,0,0,0,0,0,0,0.0566,0.0568,0.0606,0.0598,0.0594,0.0557,0.0557,0.0522,0.0509,0.0554,0.0551,0.0551,0.0454,0.0447,0.044,0.0387,0.0391,0.0388,0.0385,0.0384,0.028,0.028,0,0,0,0,0,0,0.0579,0.0569,0.0607,0.0605,0.0578,0.056,0.0559,0.0575,0.0511,0.0502,0.0552,0.0549,0.0455,0.0444,0.0435,0.0371,0.0387,0.0383,0.0381,0.0281,0.028,0.028,0,0,0,0,0,0,0.0579,0.0584,0.0609,0.0586,0.0587,0.0563,0.0581,0.0575,0.055,0.0511,0.0499,0.053,0.0453,0.0441,0.0394,0.0368,0.0382,0.0378,0.0281,0.028,0.028,0.0279,0,0,0,0,0,0,0.0577,0.0584,0.0581,0.0588,0.0589,0.0596,0.0582,0.0575,0.0553,0.0548,0.0489,0.0477,0.0452,0.0401,0.039,0.0362,0.0375,0.0281,0.0281,0.028,0.0279,0.0278,0.0277,0,0,0,0,0,0.0576,0.0573,0.0582,0.0585,0.0594,0.0596,0.0592,0.0569,0.0553,0.0541,0.0505,0.0478,0.0389,0.0397,0.0385,0.0355,0.0282,0.0281,0.028,0.028,0.0278,0.0277,0,0,0,0,0,0,0.0525,0.0569,0.0578,0.0583,0.0588,0.0588,0.0565,0.0562,0.0526,0.0507,0.0474,0.0461,0.0412,0.0389,0.0399,0.0326,0.033,0.0327,0.0334,0.0333,0.0332,0.0324,0.0371,0,0,0,0,0,0.0524,0.0539,0.057,0.0565,0.0571,0.0568,0.0559,0.0551,0.0532,0.0514,0.0476,0.0435,0.0405,0.0373,0.0343,0.0299,0.0281,0.0273,0.0272,0.0271,0.0258,0.022,0.0214,0.0277,0.0277,0.0277,0,0,0.0498,0.0522,0.0527,0.0556,0.0552,0.0558,0.0558,0.0541,0.0529,0.0505,0.0452,0.043,0.0396,0.0352,0.0327,0.0322,0.0247,0.027,0.027,0.0257,0.0218,0.0212,0.0206,0.0277,0.0277,0.0277,0,0,0.0468,0.0483,0.0497,0.0507,0.0516,0.0521,0.0518,0.0516,0.0495,0.0461,0.0444,0.0409,0.0349,0.0327,0.0308,0.0284,0.0251,0.0268,0.0243,0.0206,0.02,0.0195,0.0179,0.0172,0.0259,0.0259,0.0259,0,0.0437,0.0475,0.0491,0.0506,0.0514,0.0508,0.052,0.0496,0.0471,0.0462,0.0437,0.037,0.0337,0.0301,0.0286,0.0279,0.0257,0.025,0.0204,0.0198,0.0192,0.0177,0.017,0.0258,0.0258,0.0258,0.0258,0,0.0441,0.0458,0.0457,0.0491,0.0488,0.0494,0.0489,0.0468,0.0442,0.0427,0.0379,0.0336,0.0303,0.0282,0.0267,0.0217,0.0216,0.0215,0.0206,0.0186,0.0172,0.0164,0.0258,0.0258,0.0258,0.0258,0,0,0.0438,0.0464,0.0468,0.0496,0.0493,0.0509,0.0471,0.0473,0.0474,0.0399,0.0392,0.031,0.0289,0.0266,0.0244,0.0191,0.0138,0.0174,0.0172,0.0158,0.0061,0.0072,0.0065,0.0121,0.012,0.0118,0.0073,0,0.0453,0.0493,0.0494,0.0519,0.055,0.0533,0.052,0.0499,0.0469,0.0451,0.0374,0.0352,0.0282,0.0278,0.0205,0.0182,0.0113,0.0151,0.0083,0.0081,0.0092,0.0054,0.0076,0.0037,0.0065,0.0064,0.0063,0,0.049,0.0519,0.0552,0.0591,0.0603,0.0603,0.0619,0.0604,0.0555,0.0531,0.0459,0.0409,0.033,0.0276,0.0153,0.0179,0.01,0.0055,0.0053,0.0053,0.0076,0.0058,0.0022,0.0049,0.005,0.0051,0.0052,0,0.0538,0.0574,0.0611,0.062,0.0642,0.0651,0.0657,0.0629,0.0642,0.0583,0.0598,0.0467,0.0458,0.0304,0.0199,0.0167,0.0081,0.004,-0.0036,-0.0035,-0.0035,-0.0031,-0.0085,-0.0085,-0.0085,-0.0084,-0.0084,0,0.0587,0.0619,0.0643,0.0668,0.0726,0.0713,0.0757,0.0744,0.0735,0.0774,0.0649,0.0671,0.0461,0.039,0.023,0.0098,0.0104,-0.0055,-0.0057,-0.0032,-0.0027,-0.0033,-0.0026,-0.0086,-0.0086,-0.0085,-0.0085,0,0.0624,0.0637,0.0694,0.0733,0.075,0.0789,0.0835,0.0873,0.0862,0.0911,0.0899,0.0835,0.0745,0.055,0.0364,0.0197,0.004,-0.0014,0.0042,0.0045,-0.0072,-0.0065,-0.0144,-0.0144,-0.0145,-0.0145,-0.0145,0,0.0637,0.0671,0.0745,0.0788,0.0805,0.0862,0.0909,0.0922,0.0967,0.1032,0.1071,0.1014,0.0963,0.0707,0.0423,0.0141,0.0103,-0.002,-0.0108,-0.009,-0.0084,-0.0076,-0.0069,-0.0101,-0.0101,-0.01,-0.01,0,0.0665,0.0693,0.0744,0.0843,0.0907,0.0985,0.1053,0.1121,0.1163,0.1225,0.1302,0.1267,0.1034,0.0766,0.0413,0.0218,0.0013,-0.0028,-0.0016,-0.0083,-0.0052,-0.0044,-0.0038,-0.0099,-0.0099,-0.0099,-0.0099,-0.0099,0.0679,0.073,0.0808,0.0903,0.0984,0.1099,0.118,0.1279,0.1389,0.1483,0.145,0.1395,0.1093,0.0614,0.0344,0.0055,0.0027,-0.0117,-0.0117,-0.0118,-0.0099,-0.0069,-0.0115,-0.0115,-0.0115,-0.0115,-0.0115,0,0.0698,0.0769,0.0863,0.098,0.1081,0.1103,0.127,0.1373,0.1536,0.1567,0.1586,0.1271,0.0976,0.0664,0.0229,-0.0056,-0.0093,-0.013,-0.0117,-0.0117,-0.0118,-0.0099,-0.0115,-0.0116,-0.0116,-0.0116,0,0,0.0712,0.0808,0.0874,0.1041,0.111,0.125,0.1354,0.1522,0.1603,0.1649,0.1569,0.1418,0.1025,0.0707,0.0361,0.0139,0.0071,0.0086,0.011,0.0167,0.017,-0.0091,-0.006,0,0,0,0,0]}],[{"header":{"parameterUnit":"m.s-1","parameterCategory":2,"la1":30.2991,"la2":30.254,"lo1":-89.0895,"lo2":-89.0444,"dy":0.0017,"dx":0.0017,"nx":28,"ny":28,"refTime":"2024-05-19T03:00:00:Z","depth":"4","parameterNumber":2,"parameterNumberName":"U-component_of_CURRENTS"},"data":[0,0,0,0,0,0,0,0,0,0,0,0,0,0,0,0,0,0,0,0,0,0,0,0,0,0,0,0,0,0,0,0,0,0,0,0,0,0,0,0,0,0,0,0,0,0,0,0,0,0,0,0,0,0,0,0,0,0,0.0573,0.0573,0,0.0595,0.0596,0.0596,0.0625,0.0625,0.0625,0.0626,0.0669,0.067,0.0671,0,0,0,0,0,0,0,0,0,0,0,0,0,0.056,0.056,0.0573,0.0573,0.0573,0.0595,0.0596,0.0596,0.0625,0.0625,0.0626,0.0626,0.0669,0.067,0.0671,0,0,0,0,0,0,0,0,0,0,0,0,0,0.0573,0.056,0.0573,0.059,0.0591,0.0595,0.0596,0.0596,0.0625,0.0625,0.0626,0.0626,0.0669,0.067,0.0671,0.0667,0,0,0.0675,0.0675,0,0,0,0,0,0,0,0,0.0572,0.0574,0.0587,0.0589,0.059,0.0607,0.0607,0.0621,0.0624,0.0613,0.0626,0.0626,0.0649,0.0652,0.0656,0.0669,0.0671,0.0675,0.0676,0.0676,0.0677,0,0,0,0,0,0,0,0.0571,0.0573,0.0583,0.0587,0.0589,0.0597,0.06,0.061,0.0629,0.0614,0.0616,0.0617,0.0651,0.0655,0.0658,0.0672,0.0675,0.0676,0.0677,0.0677,0.0781,0.0783,0,0,0,0,0,0,0.0566,0.0572,0.0582,0.0583,0.0581,0.0597,0.06,0.0602,0.0628,0.0633,0.0616,0.0618,0.0653,0.0656,0.0659,0.0756,0.0676,0.0677,0.0678,0.0779,0.0781,0.0783,0,0,0,0,0,0,0.0565,0.0566,0.0581,0.0577,0.058,0.0596,0.0598,0.0602,0.0646,0.063,0.0634,0.0661,0.0653,0.0658,0.0706,0.0754,0.0678,0.0679,0.0776,0.078,0.0782,0.0884,0,0,0,0,0,0,0.0565,0.0566,0.0578,0.0577,0.058,0.0602,0.0598,0.0602,0.0642,0.0646,0.0669,0.0671,0.0654,0.0705,0.0708,0.0754,0.068,0.0774,0.0778,0.0781,0.0878,0.089,0.0901,0,0,0,0,0,0.0564,0.057,0.0578,0.058,0.0591,0.0603,0.0606,0.062,0.0645,0.0664,0.0691,0.0673,0.0731,0.0708,0.071,0.0758,0.0772,0.0777,0.0781,0.0873,0.0888,0.09,0,0,0,0,0,0,0.0572,0.0573,0.0582,0.059,0.0606,0.0608,0.0621,0.0647,0.0685,0.0689,0.0699,0.0703,0.0763,0.0748,0.0722,0.0799,0.0748,0.0753,0.0817,0.0831,0.0842,0.0876,0.0681,0,0,0,0,0,0.0578,0.0585,0.0591,0.0603,0.0608,0.0629,0.0643,0.065,0.0674,0.0693,0.071,0.0734,0.0777,0.0796,0.0806,0.0851,0.0847,0.0883,0.0894,0.0903,0.0934,0.0976,0.0995,0.0798,0.0798,0.0798,0,0,0.0579,0.0587,0.0589,0.0606,0.0616,0.0639,0.064,0.0657,0.0704,0.069,0.0758,0.0772,0.0798,0.0847,0.0872,0.0846,0.0952,0.0909,0.0918,0.0943,0.0983,0.1002,0.1019,0.0802,0.0801,0.08,0,0,0.0586,0.0598,0.0606,0.0632,0.065,0.0654,0.0675,0.0691,0.0729,0.0796,0.0801,0.0849,0.0905,0.0922,0.0949,0.1031,0.1011,0.1037,0.1125,0.1166,0.1182,0.1197,0.1195,0.1208,0.1042,0.1042,0.1043,0,0.0593,0.0607,0.0613,0.0645,0.0649,0.0676,0.0684,0.0746,0.0783,0.0826,0.0832,0.0941,0.0949,0.1039,0.1076,0.1058,0.1071,0.1071,0.1182,0.1196,0.121,0.1204,0.1218,0.1048,0.1047,0.1047,0.1046,0,0.0605,0.0637,0.0647,0.0687,0.0694,0.0708,0.0758,0.0817,0.0869,0.092,0.1025,0.1048,0.1117,0.1128,0.1146,0.1246,0.1219,0.119,0.1149,0.1236,0.1223,0.1236,0.1056,0.1054,0.1052,0.1051,0,0,0.0572,0.0635,0.0652,0.0681,0.0707,0.0722,0.0806,0.0876,0.0962,0.1044,0.114,0.1243,0.1266,0.1299,0.1304,0.1353,0.1449,0.1337,0.1337,0.1337,0.1531,0.1328,0.1322,0.1455,0.1458,0.1461,0.1475,0,0.058,0.0635,0.0648,0.0708,0.0724,0.0772,0.0851,0.0933,0.1008,0.1118,0.1211,0.1307,0.1332,0.1372,0.1437,0.1437,0.1494,0.1447,0.1445,0.1445,0.1257,0.1334,0.1472,0.1484,0.1487,0.1489,0.149,0,0.0586,0.0621,0.065,0.0724,0.0735,0.0779,0.0871,0.0954,0.1118,0.1187,0.1309,0.138,0.15,0.1494,0.1596,0.1573,0.1591,0.1588,0.1587,0.1379,0.1267,0.1384,0.1513,0.1511,0.1509,0.1508,0.1507,0,0.0546,0.0631,0.0643,0.0671,0.0753,0.0796,0.0856,0.0979,0.1049,0.1242,0.129,0.1454,0.1507,0.1601,0.1625,0.164,0.1686,0.1681,0.1516,0.1499,0.1632,0.1616,0.1776,0.1776,0.1776,0.1776,0.1776,0,0.0533,0.0571,0.0653,0.0675,0.0729,0.0791,0.0867,0.0975,0.1093,0.118,0.1331,0.1395,0.1547,0.159,0.1642,0.159,0.1702,0.1552,0.1504,0.1668,0.1657,0.1638,0.1622,0.1776,0.1776,0.1776,0.1776,0,0.049,0.0541,0.0585,0.0677,0.0707,0.076,0.0854,0.0934,0.1047,0.1151,0.1221,0.136,0.1422,0.149,0.1579,0.1545,0.1552,0.1506,0.1646,0.1601,0.1344,0.1333,0.136,0.1353,0.1348,0.1343,0.1339,0,0.0467,0.0481,0.0571,0.0597,0.0639,0.0725,0.0783,0.0912,0.0978,0.1121,0.1164,0.125,0.1338,0.129,0.137,0.1398,0.1389,0.1378,0.1426,0.1359,0.131,0.1308,0.1305,0.133,0.1328,0.1327,0.1326,0,0.0411,0.0448,0.0487,0.0542,0.06,0.0657,0.0753,0.078,0.0943,0.1036,0.1118,0.1161,0.1166,0.122,0.1193,0.1236,0.1388,0.132,0.1334,0.138,0.1322,0.1279,0.1283,0.1306,0.1309,0.131,0.1312,0,0.0372,0.0384,0.0436,0.0486,0.0543,0.0577,0.0638,0.0729,0.0802,0.0978,0.1001,0.1085,0.1182,0.1129,0.1136,0.111,0.1128,0.1133,0.1158,0.118,0.1105,0.1004,0.0868,0,0,0,0,0,0.0332,0.0339,0.0374,0.0419,0.0473,0.0504,0.0611,0.0684,0.0828,0.087,0.0939,0.0975,0.0978,0.1008,0.0946,0.1002,0.1092,0.092,0.1102,0.1196,0.1219,0.1141,0,0,0,0,0,0,0.0301,0.0327,0.035,0.0354,0.0367,0.0419,0.048,0.058,0.0619,0.0771,0.0784,0.0892,0.0901,0.0997,0.092,0.0921,0.1009,0.0968,0.0964,0.1183,0.1204,0.1222,0.115,0,0,0,0,0]},{"header":{"parameterUnit":"m.s-1","parameterCategory":2,"la1":30.2991,"la2":30.254,"lo1":-89.0895,"lo2":-89.0444,"dy":0.0017,"dx":0.0017,"nx":28,"ny":28,"refTime":"2024-05-19T03:00:00:Z","depth":"4","parameterNumber":3,"parameterNumberName":"V-component_of_CURRENTS"},"data":[0,0,0,0,0,0,0,0,0,0,0,0,0,0,0,0,0,0,0,0,0,0,0,0,0,0,0,0,0,0,0,0,0,0,0,0,0,0,0,0,0,0,0,0,0,0,0,0,0,0,0,0,0,0,0,0,0,0,0.0321,0.032,0,0.0293,0.0293,0.0293,0.0284,0.0284,0.0284,0.0284,0.026,0.0259,0.0259,0,0,0,0,0,0,0,0,0,0,0,0,0,0.0336,0.0336,0.0321,0.032,0.032,0.0294,0.0293,0.0293,0.0284,0.0284,0.0284,0.0284,0.026,0.0259,0.0259,0,0,0,0,0,0,0,0,0,0,0,0,0,0.0321,0.0336,0.0321,0.0313,0.0312,0.0294,0.0293,0.0293,0.0283,0.0284,0.0284,0.0284,0.0261,0.026,0.0258,0.0246,0,0,0.0255,0.0254,0,0,0,0,0,0,0,0,0.0322,0.032,0.0314,0.0313,0.0312,0.0293,0.029,0.0277,0.0283,0.0294,0.0284,0.0284,0.0272,0.0269,0.0263,0.0245,0.0244,0.0255,0.0254,0.0253,0.0253,0,0,0,0,0,0,0,0.0323,0.0321,0.0309,0.0314,0.0313,0.0301,0.0299,0.0287,0.0281,0.0293,0.0292,0.029,0.0271,0.0264,0.0262,0.0244,0.0255,0.0254,0.0253,0.0252,0.0209,0.0208,0,0,0,0,0,0,0.0329,0.0322,0.031,0.0308,0.0318,0.0301,0.0299,0.0298,0.0281,0.0279,0.029,0.029,0.0266,0.0264,0.0261,0.0267,0.0253,0.0252,0.0252,0.0209,0.0208,0.0208,0,0,0,0,0,0,0.0329,0.0328,0.0311,0.0315,0.0312,0.03,0.03,0.0298,0.0308,0.0279,0.0277,0.0305,0.0266,0.0263,0.0253,0.0265,0.0252,0.0251,0.021,0.0209,0.0208,0.0264,0,0,0,0,0,0,0.033,0.0328,0.0338,0.0316,0.0312,0.0311,0.0299,0.0297,0.0305,0.0306,0.0291,0.0288,0.0266,0.0255,0.0252,0.0263,0.025,0.021,0.0209,0.0208,0.0263,0.0265,0.0268,0,0,0,0,0,0.033,0.0343,0.0338,0.0337,0.0323,0.0312,0.0309,0.03,0.0306,0.0311,0.0295,0.0289,0.0247,0.0253,0.025,0.0262,0.0211,0.021,0.0209,0.0262,0.0265,0.0268,0,0,0,0,0,0,0.0354,0.0342,0.0337,0.0346,0.0334,0.0311,0.0316,0.0314,0.0306,0.0307,0.0287,0.0282,0.0273,0.0256,0.0264,0.0242,0.0227,0.0225,0.0268,0.0271,0.0273,0.0297,0.0249,0,0,0,0,0,0.0363,0.0371,0.0352,0.036,0.0355,0.034,0.0339,0.0331,0.0317,0.0315,0.0296,0.0277,0.0263,0.026,0.0235,0.0233,0.0192,0.0234,0.0236,0.0239,0.0253,0.0184,0.0182,0.0205,0.0205,0.0205,0,0,0.0368,0.0369,0.0369,0.0366,0.0355,0.0353,0.0341,0.0339,0.0347,0.0313,0.0313,0.0284,0.0261,0.0248,0.0244,0.0241,0.0208,0.0237,0.024,0.0253,0.0183,0.0181,0.0179,0.0204,0.0204,0.0204,0,0,0.0382,0.0388,0.0394,0.0395,0.0388,0.0373,0.0379,0.0356,0.036,0.0361,0.0326,0.0305,0.0294,0.0264,0.0257,0.0259,0.0218,0.0252,0.0293,0.0226,0.0224,0.0222,0.0161,0.0153,0.0259,0.0259,0.0259,0,0.0386,0.0396,0.0393,0.0406,0.0397,0.0388,0.038,0.0394,0.037,0.0365,0.0372,0.0326,0.0305,0.0287,0.0289,0.0267,0.0222,0.029,0.0231,0.0228,0.0224,0.0163,0.0153,0.0262,0.0262,0.0261,0.0261,0,0.0399,0.0416,0.0422,0.0428,0.0419,0.0416,0.0415,0.0427,0.0431,0.0419,0.0407,0.0374,0.0349,0.0336,0.0327,0.029,0.0262,0.0238,0.0229,0.0226,0.016,0.0149,0.0266,0.0265,0.0264,0.0263,0,0,0.0382,0.0417,0.0425,0.0436,0.0426,0.0424,0.0445,0.0438,0.0453,0.0452,0.0449,0.0435,0.041,0.0399,0.0364,0.032,0.0259,0.0284,0.0279,0.0235,0.011,0.0123,0.0112,0.0221,0.022,0.0218,0.0072,0,0.0384,0.0417,0.0418,0.0438,0.0443,0.0445,0.0464,0.0467,0.0462,0.0462,0.0453,0.0436,0.044,0.0425,0.0386,0.0277,0.0233,0.0301,0.0112,0.0106,0.0127,0.0101,0.0214,0.0064,0.0061,0.0059,0.0058,0,0.039,0.0412,0.0426,0.0453,0.0453,0.0466,0.0471,0.0491,0.0496,0.0494,0.0484,0.0459,0.0419,0.0417,0.0277,0.0318,0.0234,0.0158,0.015,0.014,0.01,0.0066,0.0037,0.0039,0.004,0.0042,0.0043,0,0.0384,0.042,0.0431,0.0441,0.0466,0.0484,0.0499,0.0499,0.0513,0.051,0.0494,0.0451,0.0421,0.0325,0.0208,0.0232,0.0029,0.003,-0.0036,-0.0037,-0.0028,-0.0024,-0.007,-0.007,-0.007,-0.0069,-0.0069,0,0.0384,0.0405,0.045,0.0467,0.0498,0.0505,0.0529,0.0547,0.0546,0.0551,0.0517,0.0494,0.0395,0.0282,0.0185,0.004,0.0009,-0.0029,-0.0073,-0.0003,0.0005,-0.0037,-0.0031,-0.0075,-0.0074,-0.0073,-0.0072,0,0.0383,0.0408,0.0443,0.0485,0.0502,0.0537,0.0574,0.06,0.0586,0.0586,0.0589,0.0506,0.037,0.0239,0.005,0.0004,-0.014,-0.0187,-0.011,-0.0148,-0.0153,-0.0142,-0.0261,-0.0261,-0.0262,-0.0263,-0.0263,0,0.0383,0.0404,0.0468,0.0498,0.0524,0.0578,0.0619,0.0636,0.0651,0.0597,0.0594,0.0464,0.0403,0.0137,0.0006,-0.0195,-0.0206,-0.027,-0.0179,-0.0141,-0.0173,-0.0161,-0.015,-0.0264,-0.0264,-0.0264,-0.0265,0,0.0381,0.0414,0.045,0.0519,0.0572,0.0628,0.068,0.0686,0.0703,0.0679,0.0604,0.0489,0.0319,0.0151,-0.0023,-0.0156,-0.0217,-0.0276,-0.0274,-0.019,-0.0147,-0.0175,-0.0163,-0.0267,-0.0266,-0.0266,-0.0266,0,0.0387,0.0418,0.0475,0.0536,0.0599,0.0652,0.0684,0.0703,0.0714,0.0663,0.0638,0.0464,0.0376,0.0166,0.0008,-0.0126,-0.0128,-0.0125,-0.0131,-0.013,-0.0032,0.0046,-0.0056,0,0,0,0,0,0.0384,0.0423,0.0482,0.0553,0.0618,0.0659,0.0709,0.0735,0.0741,0.0705,0.0677,0.0532,0.0313,0.02,0.0069,-0.0004,-0.0163,-0.0157,-0.0165,-0.0279,-0.0276,-0.018,0,0,0,0,0,0,0.0383,0.0438,0.0478,0.0553,0.0606,0.0682,0.0718,0.073,0.0708,0.069,0.0562,0.0529,0.0293,0.0382,0.0072,0.0029,0.0017,-0.0263,-0.0264,-0.028,-0.0278,-0.0276,-0.0176,0,0,0,0,0]}]]